Time,TemperatureF,DewpointF,PressureIn,WindDirection,WindDirectionDegrees,WindSpeedMPH,WindSpeedGustMPH,Humidity,HourlyPrecipIn,Conditions,Clouds,dailyrainin,SoftwareType,DateUTC
2013-09-19 00:01:00,76.1,72.0,30.03,North,360,1.6,2.0,89,0.00,,,0.00,Rainwise IP-100,2013-09-19 04:01:00,
2013-09-19 00:06:00,76.2,72.0,30.03,WNW,292,1.4,3.0,89,0.00,,,0.00,Rainwise IP-100,2013-09-19 04:06:00,
2013-09-19 00:11:00,76.2,72.0,30.03,NNW,337,1.4,4.0,89,0.00,,,0.00,Rainwise IP-100,2013-09-19 04:11:00,
2013-09-19 00:16:00,76.2,72.0,30.02,WNW,292,1.6,3.0,89,0.00,,,0.00,Rainwise IP-100,2013-09-19 04:16:00,
2013-09-19 00:21:00,76.2,72.0,30.03,NNW,337,1.6,3.0,89,0.00,,,0.00,Rainwise IP-100,2013-09-19 04:21:00,
2013-09-19 00:26:00,76.2,72.0,30.02,NNW,337,0.0,3.0,89,0.00,,,0.00,Rainwise IP-100,2013-09-19 04:26:00,
2013-09-19 00:31:00,76.3,72.0,30.03,NNW,337,1.4,3.0,89,0.00,,,0.00,Rainwise IP-100,2013-09-19 04:31:00,
2013-09-19 00:37:00,76.3,73.0,30.02,NW,315,2.6,5.0,90,0.00,,,0.00,Rainwise IP-100,2013-09-19 04:37:00,
2013-09-19 00:42:00,76.3,73.0,30.02,WNW,292,1.6,4.0,90,0.00,,,0.00,Rainwise IP-100,2013-09-19 04:42:00,
2013-09-19 00:47:00,76.3,73.0,30.02,NNW,337,1.9,3.0,90,0.00,,,0.00,Rainwise IP-100,2013-09-19 04:47:00,
2013-09-19 00:52:00,76.2,73.0,30.02,North,360,1.2,5.0,90,0.00,,,0.00,Rainwise IP-100,2013-09-19 04:52:00,
2013-09-19 00:57:00,76.2,73.0,30.02,NNW,337,1.6,4.0,90,0.00,,,0.00,Rainwise IP-100,2013-09-19 04:57:00,
2013-09-19 01:02:00,76.2,73.0,30.02,NNW,337,1.9,4.0,90,0.00,,,0.00,Rainwise IP-100,2013-09-19 05:02:00,
2013-09-19 01:07:00,76.2,73.0,30.02,NNW,337,0.0,4.0,90,0.00,,,0.00,Rainwise IP-100,2013-09-19 05:07:00,
2013-09-19 01:13:00,76.1,72.0,30.02,NNW,337,0.0,3.0,90,0.00,,,0.00,Rainwise IP-100,2013-09-19 05:13:00,
2013-09-19 01:18:00,76.2,73.0,30.01,WNW,292,2.1,3.0,90,0.00,,,0.00,Rainwise IP-100,2013-09-19 05:18:00,
2013-09-19 01:23:00,76.2,73.0,30.02,WNW,292,2.6,4.0,91,0.00,,,0.00,Rainwise IP-100,2013-09-19 05:23:00,
2013-09-19 01:28:00,76.2,73.0,30.02,WNW,292,2.6,3.0,91,0.00,,,0.00,Rainwise IP-100,2013-09-19 05:28:00,
2013-09-19 01:33:00,76.1,73.0,30.02,WNW,292,2.3,4.0,91,0.00,,,0.00,Rainwise IP-100,2013-09-19 05:33:00,
2013-09-19 01:38:00,76.1,73.0,30.01,WNW,292,0.0,4.0,91,0.00,,,0.00,Rainwise IP-100,2013-09-19 05:38:00,
2013-09-19 01:43:00,76.1,73.0,30.01,NW,315,1.9,3.0,91,0.00,,,0.00,Rainwise IP-100,2013-09-19 05:43:00,
2013-09-19 01:48:00,76.1,73.0,30.01,WNW,292,1.4,3.0,91,0.00,,,0.00,Rainwise IP-100,2013-09-19 05:48:00,
2013-09-19 01:54:00,76.1,73.0,30.01,NNW,337,0.0,2.0,91,0.00,,,0.00,Rainwise IP-100,2013-09-19 05:54:00,
2013-09-19 01:59:00,76.1,73.0,30.01,NNW,337,0.0,3.0,91,0.00,,,0.00,Rainwise IP-100,2013-09-19 05:59:00,
2013-09-19 02:04:00,76.0,73.0,30.00,NNW,337,2.1,2.1,91,0.00,,,0.00,Rainwise IP-100,2013-09-19 06:04:00,
2013-09-19 02:09:00,76.0,73.0,30.00,NNW,337,3.7,5.0,91,0.00,,,0.00,Rainwise IP-100,2013-09-19 06:09:00,
2013-09-19 02:14:00,76.0,73.0,30.00,NNW,337,3.3,5.0,91,0.00,,,0.00,Rainwise IP-100,2013-09-19 06:14:00,
2013-09-19 02:19:00,75.9,73.0,30.00,NNW,337,6.5,6.5,91,0.00,,,0.00,Rainwise IP-100,2013-09-19 06:19:00,
2013-09-19 02:24:00,75.9,73.0,30.00,NNW,337,0.0,6.0,91,0.00,,,0.00,Rainwise IP-100,2013-09-19 06:24:00,
2013-09-19 02:30:00,75.9,73.0,29.99,NNW,337,1.4,3.0,91,0.00,,,0.00,Rainwise IP-100,2013-09-19 06:30:00,
2013-09-19 02:35:00,75.9,73.0,29.99,NNW,337,2.1,3.0,91,0.00,,,0.00,Rainwise IP-100,2013-09-19 06:35:00,
2013-09-19 02:40:00,75.9,73.0,29.99,NNW,337,2.6,4.0,92,0.00,,,0.00,Rainwise IP-100,2013-09-19 06:40:00,
2013-09-19 02:45:00,75.8,73.0,29.99,NW,315,3.0,4.0,92,0.00,,,0.00,Rainwise IP-100,2013-09-19 06:45:00,
2013-09-19 02:50:00,75.7,73.0,29.99,NNW,337,2.1,4.0,92,0.00,,,0.00,Rainwise IP-100,2013-09-19 06:50:00,
2013-09-19 02:55:00,75.7,73.0,29.99,NNW,337,1.4,4.0,92,0.00,,,0.00,Rainwise IP-100,2013-09-19 06:55:00,
2013-09-19 03:00:00,75.7,73.0,29.98,NNW,337,4.7,5.0,92,0.00,,,0.00,Rainwise IP-100,2013-09-19 07:00:00,
2013-09-19 03:05:00,75.6,73.0,29.98,NNW,337,4.9,5.0,92,0.00,,,0.00,Rainwise IP-100,2013-09-19 07:05:00,
2013-09-19 03:11:00,75.6,73.0,29.98,NNW,337,3.3,6.0,92,0.00,,,0.00,Rainwise IP-100,2013-09-19 07:11:00,
2013-09-19 03:16:00,75.6,73.0,29.98,NNW,337,3.0,5.0,92,0.00,,,0.00,Rainwise IP-100,2013-09-19 07:16:00,
2013-09-19 03:21:00,75.5,73.0,29.98,NNW,337,3.3,5.0,92,0.00,,,0.00,Rainwise IP-100,2013-09-19 07:21:00,
2013-09-19 03:26:00,75.5,73.0,29.98,NNW,337,1.2,4.0,92,0.00,,,0.00,Rainwise IP-100,2013-09-19 07:26:00,
2013-09-19 03:31:00,75.6,73.0,29.98,NNW,337,2.3,4.0,92,0.00,,,0.00,Rainwise IP-100,2013-09-19 07:31:00,
2013-09-19 03:36:00,75.5,73.0,29.98,NNW,337,1.4,3.0,92,0.00,,,0.00,Rainwise IP-100,2013-09-19 07:36:00,
2013-09-19 03:41:00,75.4,73.0,29.98,NNW,337,2.1,3.0,92,0.00,,,0.00,Rainwise IP-100,2013-09-19 07:41:00,
2013-09-19 03:47:00,75.4,73.0,29.97,NNW,337,3.7,4.0,92,0.00,,,0.00,Rainwise IP-100,2013-09-19 07:47:00,
2013-09-19 03:52:00,75.3,73.0,29.97,NNW,337,1.6,4.0,93,0.00,,,0.00,Rainwise IP-100,2013-09-19 07:52:00,
2013-09-19 03:57:00,75.3,73.0,29.98,NNW,337,1.9,3.0,93,0.00,,,0.00,Rainwise IP-100,2013-09-19 07:57:00,
2013-09-19 04:02:00,75.4,73.0,29.97,NW,315,2.1,4.0,93,0.00,,,0.00,Rainwise IP-100,2013-09-19 08:02:00,
2013-09-19 04:07:00,75.3,73.0,29.97,NNE,22,2.8,4.0,93,0.00,,,0.00,Rainwise IP-100,2013-09-19 08:07:00,
2013-09-19 04:12:00,75.4,73.0,29.97,NNW,337,1.4,5.0,93,0.00,,,0.00,Rainwise IP-100,2013-09-19 08:12:00,
2013-09-19 04:17:00,75.4,73.0,29.97,NNW,337,2.3,4.0,93,0.00,,,0.00,Rainwise IP-100,2013-09-19 08:17:00,
2013-09-19 04:22:00,75.5,73.0,29.96,NNW,337,3.3,4.0,93,0.00,,,0.00,Rainwise IP-100,2013-09-19 08:22:00,
2013-09-19 04:28:00,75.5,73.0,29.96,NNW,337,1.6,4.0,93,0.00,,,0.00,Rainwise IP-100,2013-09-19 08:28:00,
2013-09-19 04:33:00,75.5,73.0,29.96,NNW,337,1.4,2.0,93,0.00,,,0.00,Rainwise IP-100,2013-09-19 08:33:00,
2013-09-19 04:38:00,75.6,73.0,29.96,NNW,337,3.0,3.0,93,0.00,,,0.00,Rainwise IP-100,2013-09-19 08:38:00,
2013-09-19 04:43:00,75.6,73.0,29.96,NNW,337,1.6,4.0,93,0.00,,,0.00,Rainwise IP-100,2013-09-19 08:43:00,
2013-09-19 04:48:00,75.7,73.0,29.96,NW,315,0.0,2.0,93,0.00,,,0.00,Rainwise IP-100,2013-09-19 08:48:00,
2013-09-19 04:53:00,75.7,73.0,29.96,NW,315,1.4,2.0,93,0.00,,,0.00,Rainwise IP-100,2013-09-19 08:53:00,
2013-09-19 04:58:00,75.6,73.0,29.96,WNW,292,2.6,3.0,93,0.00,,,0.00,Rainwise IP-100,2013-09-19 08:58:00,
2013-09-19 05:04:00,75.6,73.0,29.96,WNW,292,1.6,3.0,93,0.00,,,0.00,Rainwise IP-100,2013-09-19 09:04:00,
2013-09-19 05:09:00,75.6,73.0,29.97,NW,315,1.9,3.0,93,0.00,,,0.00,Rainwise IP-100,2013-09-19 09:09:00,
2013-09-19 05:14:00,75.6,73.0,29.96,WNW,292,2.8,4.0,94,0.00,,,0.00,Rainwise IP-100,2013-09-19 09:14:00,
2013-09-19 05:19:00,75.5,73.0,29.96,WNW,292,1.4,4.0,94,0.00,,,0.00,Rainwise IP-100,2013-09-19 09:19:00,
2013-09-19 05:24:00,75.5,73.0,29.96,NNW,337,1.9,4.0,94,0.00,,,0.00,Rainwise IP-100,2013-09-19 09:24:00,
2013-09-19 05:29:00,75.5,73.0,29.96,WNW,292,2.1,4.0,94,0.00,,,0.00,Rainwise IP-100,2013-09-19 09:29:00,
2013-09-19 05:34:00,75.6,73.0,29.96,NNW,337,1.4,2.0,94,0.00,,,0.00,Rainwise IP-100,2013-09-19 09:34:00,
2013-09-19 05:39:00,75.5,73.0,29.97,NNW,337,0.0,2.0,94,0.00,,,0.00,Rainwise IP-100,2013-09-19 09:39:00,
2013-09-19 05:45:00,75.4,73.0,29.97,WNW,292,0.0,3.0,94,0.00,,,0.00,Rainwise IP-100,2013-09-19 09:45:00,
2013-09-19 05:50:00,75.4,73.0,29.97,WSW,247,1.9,2.0,94,0.00,,,0.00,Rainwise IP-100,2013-09-19 09:50:00,
2013-09-19 05:52:00,75.4,73.0,29.97,WSW,247,0.0,2.0,94,0.00,,,0.00,Rainwise IP-100,2013-09-19 09:52:00,
2013-09-19 05:57:00,75.4,73.0,29.98,West,270,4.2,4.2,94,0.00,,,0.00,Rainwise IP-100,2013-09-19 09:57:00,
2013-09-19 06:02:00,75.4,73.0,29.98,WSW,247,0.0,5.0,94,0.00,,,0.00,Rainwise IP-100,2013-09-19 10:02:00,
2013-09-19 06:08:00,75.5,73.0,29.97,WNW,292,2.6,2.6,94,0.00,,,0.00,Rainwise IP-100,2013-09-19 10:08:00,
2013-09-19 06:13:00,75.7,73.0,29.98,WNW,292,2.6,3.0,94,0.00,,,0.00,Rainwise IP-100,2013-09-19 10:13:00,
2013-09-19 06:18:00,75.9,74.0,29.98,WNW,292,2.1,3.0,94,0.00,,,0.00,Rainwise IP-100,2013-09-19 10:18:00,
2013-09-19 06:23:00,76.2,74.0,29.98,WNW,292,1.4,2.0,94,0.00,,,0.00,Rainwise IP-100,2013-09-19 10:23:00,
2013-09-19 06:28:00,76.5,74.0,29.98,North,360,3.3,5.0,94,0.00,,,0.00,Rainwise IP-100,2013-09-19 10:28:00,
2013-09-19 06:33:00,76.9,75.0,29.98,NNE,22,3.3,4.0,94,0.00,,,0.00,Rainwise IP-100,2013-09-19 10:33:00,
2013-09-19 06:38:00,77.6,75.0,29.98,NE,45,4.9,8.0,93,0.00,,,0.00,Rainwise IP-100,2013-09-19 10:38:00,
2013-09-19 06:43:00,78.5,76.0,29.98,ENE,67,5.8,11.0,92,0.00,,,0.00,Rainwise IP-100,2013-09-19 10:43:00,
2013-09-19 06:49:00,79.7,76.0,29.98,ENE,67,6.3,9.0,89,0.00,,,0.00,Rainwise IP-100,2013-09-19 10:49:00,
2013-09-19 06:54:00,80.5,76.0,29.98,ENE,67,6.3,10.0,87,0.00,,,0.00,Rainwise IP-100,2013-09-19 10:54:00,
2013-09-19 06:59:00,80.9,76.0,29.98,NE,45,7.0,8.0,86,0.00,,,0.00,Rainwise IP-100,2013-09-19 10:59:00,
2013-09-19 07:04:00,81.1,76.0,29.98,ENE,67,7.5,10.0,85,0.00,,,0.00,Rainwise IP-100,2013-09-19 11:04:00,
2013-09-19 07:09:00,81.3,76.0,29.99,NE,45,9.1,10.0,83,0.00,,,0.00,Rainwise IP-100,2013-09-19 11:09:00,
2013-09-19 07:14:00,81.4,75.0,29.99,ENE,67,6.5,10.0,82,0.00,,,0.00,Rainwise IP-100,2013-09-19 11:14:00,
2013-09-19 07:19:00,81.6,75.0,29.99,ENE,67,7.2,9.0,82,0.00,,,0.00,Rainwise IP-100,2013-09-19 11:19:00,
2013-09-19 07:25:00,81.7,75.0,29.99,ENE,67,4.9,7.0,82,0.00,,,0.00,Rainwise IP-100,2013-09-19 11:25:00,
2013-09-19 07:30:00,81.6,75.0,29.99,NE,45,7.2,7.2,82,0.00,,,0.00,Rainwise IP-100,2013-09-19 11:30:00,
2013-09-19 07:35:00,81.7,75.0,29.99,NE,45,6.8,10.0,82,0.00,,,0.00,Rainwise IP-100,2013-09-19 11:35:00,
2013-09-19 07:40:00,81.8,75.0,29.99,ENE,67,4.0,9.0,82,0.00,,,0.00,Rainwise IP-100,2013-09-19 11:40:00,
2013-09-19 07:45:00,81.9,75.0,29.99,NE,45,4.0,9.0,81,0.00,,,0.00,Rainwise IP-100,2013-09-19 11:45:00,
2013-09-19 07:50:00,82.0,75.0,29.99,ENE,67,6.5,8.0,81,0.00,,,0.00,Rainwise IP-100,2013-09-19 11:50:00,
2013-09-19 07:55:00,82.1,75.0,29.99,NE,45,7.2,9.0,80,0.00,,,0.00,Rainwise IP-100,2013-09-19 11:55:00,
2013-09-19 08:00:00,82.2,75.0,30.00,ENE,67,6.3,9.0,80,0.00,,,0.00,Rainwise IP-100,2013-09-19 12:00:00,
2013-09-19 08:06:00,82.3,75.0,30.00,NE,45,4.7,9.0,80,0.00,,,0.00,Rainwise IP-100,2013-09-19 12:06:00,
2013-09-19 08:11:00,82.5,76.0,30.00,North,360,1.6,10.0,80,0.00,,,0.00,Rainwise IP-100,2013-09-19 12:11:00,
2013-09-19 08:16:00,82.6,76.0,30.00,NNW,337,0.0,7.0,80,0.00,,,0.00,Rainwise IP-100,2013-09-19 12:16:00,
2013-09-19 08:21:00,82.6,75.0,29.99,NNE,22,4.4,6.0,79,0.00,,,0.00,Rainwise IP-100,2013-09-19 12:21:00,
2013-09-19 08:26:00,83.2,76.0,30.00,ENE,67,3.7,11.0,78,0.00,,,0.00,Rainwise IP-100,2013-09-19 12:26:00,
2013-09-19 08:31:00,83.8,75.0,30.01,NE,45,6.3,9.0,76,0.00,,,0.00,Rainwise IP-100,2013-09-19 12:31:00,
2013-09-19 08:36:00,84.1,75.0,30.01,NE,45,7.7,9.0,75,0.00,,,0.00,Rainwise IP-100,2013-09-19 12:36:00,
2013-09-19 08:42:00,84.3,75.0,30.01,ENE,67,7.2,9.0,75,0.00,,,0.00,Rainwise IP-100,2013-09-19 12:42:00,
2013-09-19 08:47:00,84.4,75.0,30.01,NNE,22,4.7,7.0,75,0.00,,,0.00,Rainwise IP-100,2013-09-19 12:47:00,
2013-09-19 08:52:00,84.8,75.0,30.01,NE,45,6.1,8.0,74,0.00,,,0.00,Rainwise IP-100,2013-09-19 12:52:00,
2013-09-19 08:57:00,84.9,76.0,30.01,ENE,67,4.9,8.0,74,0.00,,,0.00,Rainwise IP-100,2013-09-19 12:57:00,
2013-09-19 09:02:00,85.0,76.0,30.01,ENE,67,4.2,7.0,74,0.00,,,0.00,Rainwise IP-100,2013-09-19 13:02:00,
2013-09-19 09:07:00,85.1,76.0,30.01,NE,45,5.8,8.0,74,0.00,,,0.00,Rainwise IP-100,2013-09-19 13:07:00,
2013-09-19 09:12:00,84.9,76.0,30.01,ENE,67,4.9,8.0,74,0.00,,,0.00,Rainwise IP-100,2013-09-19 13:12:00,
2013-09-19 09:17:00,84.9,76.0,30.01,NE,45,1.6,6.0,74,0.00,,,0.00,Rainwise IP-100,2013-09-19 13:17:00,
2013-09-19 09:23:00,85.4,76.0,30.01,NE,45,7.0,10.0,73,0.00,,,0.00,Rainwise IP-100,2013-09-19 13:23:00,
2013-09-19 09:28:00,85.6,74.0,30.01,ENE,67,5.1,10.0,71,0.00,,,0.00,Rainwise IP-100,2013-09-19 13:28:00,
2013-09-19 09:33:00,85.6,74.0,30.02,ENE,67,7.5,11.0,70,0.00,,,0.00,Rainwise IP-100,2013-09-19 13:33:00,
2013-09-19 09:38:00,85.8,75.0,30.02,ENE,67,7.5,9.0,71,0.00,,,0.00,Rainwise IP-100,2013-09-19 13:38:00,
2013-09-19 09:43:00,86.0,75.0,30.02,ENE,67,7.2,9.0,71,0.00,,,0.00,Rainwise IP-100,2013-09-19 13:43:00,
2013-09-19 09:48:00,86.0,75.0,30.02,NNE,22,7.5,9.0,71,0.00,,,0.00,Rainwise IP-100,2013-09-19 13:48:00,
2013-09-19 09:53:00,85.6,74.0,30.02,NE,45,6.8,10.0,71,0.00,,,0.00,Rainwise IP-100,2013-09-19 13:53:00,
2013-09-19 09:58:00,85.4,74.0,30.02,ENE,67,6.5,10.0,71,0.00,,,0.00,Rainwise IP-100,2013-09-19 13:58:00,
2013-09-19 10:03:00,85.5,74.0,30.02,ENE,67,6.5,9.0,71,0.00,,,0.00,Rainwise IP-100,2013-09-19 14:03:00,
2013-09-19 10:09:00,85.8,75.0,30.02,NE,45,5.8,9.0,71,0.00,,,0.00,Rainwise IP-100,2013-09-19 14:09:00,
2013-09-19 10:14:00,86.1,75.0,30.02,NE,45,6.1,10.0,70,0.00,,,0.00,Rainwise IP-100,2013-09-19 14:14:00,
2013-09-19 10:19:00,86.2,74.0,30.03,NE,45,6.8,10.0,69,0.00,,,0.00,Rainwise IP-100,2013-09-19 14:19:00,
2013-09-19 10:24:00,85.7,74.0,30.03,NE,45,6.3,10.0,70,0.00,,,0.00,Rainwise IP-100,2013-09-19 14:24:00,
2013-09-19 10:29:00,84.9,74.0,30.03,ENE,67,7.5,11.0,71,0.00,,,0.00,Rainwise IP-100,2013-09-19 14:29:00,
2013-09-19 10:34:00,85.0,74.0,30.03,NE,45,8.2,11.0,72,0.00,,,0.00,Rainwise IP-100,2013-09-19 14:34:00,
2013-09-19 10:39:00,85.5,74.0,30.03,NNE,22,6.1,11.0,71,0.00,,,0.00,Rainwise IP-100,2013-09-19 14:39:00,
2013-09-19 10:45:00,86.0,74.0,30.03,NE,45,8.4,12.0,69,0.00,,,0.00,Rainwise IP-100,2013-09-19 14:45:00,
2013-09-19 10:50:00,86.2,74.0,30.04,NE,45,7.0,10.0,69,0.00,,,0.00,Rainwise IP-100,2013-09-19 14:50:00,
2013-09-19 10:55:00,86.1,75.0,30.03,NNE,22,10.3,11.0,70,0.00,,,0.00,Rainwise IP-100,2013-09-19 14:55:00,
2013-09-19 11:00:00,85.8,74.0,30.03,NE,45,9.6,10.0,70,0.00,,,0.00,Rainwise IP-100,2013-09-19 15:00:00,
2013-09-19 11:05:00,85.4,74.0,30.04,ENE,67,4.4,9.0,71,0.00,,,0.00,Rainwise IP-100,2013-09-19 15:05:00,
2013-09-19 11:10:00,85.2,75.0,30.04,NE,45,5.1,11.0,72,0.00,,,0.00,Rainwise IP-100,2013-09-19 15:10:00,
2013-09-19 11:15:00,85.4,74.0,30.03,NE,45,10.5,11.0,71,0.00,,,0.00,Rainwise IP-100,2013-09-19 15:15:00,
2013-09-19 11:20:00,85.6,74.0,30.03,NE,45,6.8,11.0,70,0.00,,,0.00,Rainwise IP-100,2013-09-19 15:20:00,
2013-09-19 11:26:00,85.8,75.0,30.04,ENE,67,5.6,9.0,71,0.00,,,0.00,Rainwise IP-100,2013-09-19 15:26:00,
2013-09-19 11:31:00,86.0,75.0,30.03,ENE,67,5.4,8.0,71,0.00,,,0.00,Rainwise IP-100,2013-09-19 15:31:00,
2013-09-19 11:36:00,86.3,75.0,30.03,NE,45,7.9,11.0,71,0.00,,,0.00,Rainwise IP-100,2013-09-19 15:36:00,
2013-09-19 11:41:00,86.4,75.0,30.04,NE,45,11.0,11.0,70,0.00,,,0.00,Rainwise IP-100,2013-09-19 15:41:00,
2013-09-19 11:46:00,86.5,75.0,30.03,ENE,67,6.3,12.0,70,0.00,,,0.00,Rainwise IP-100,2013-09-19 15:46:00,
2013-09-19 11:51:00,86.5,75.0,30.03,ENE,67,11.9,11.9,70,0.00,,,0.00,Rainwise IP-100,2013-09-19 15:51:00,
2013-09-19 11:56:00,86.3,75.0,30.03,NE,45,10.5,12.0,70,0.00,,,0.00,Rainwise IP-100,2013-09-19 15:56:00,
2013-09-19 12:02:00,86.3,74.0,30.03,ENE,67,9.3,12.0,69,0.00,,,0.00,Rainwise IP-100,2013-09-19 16:02:00,
2013-09-19 12:07:00,86.5,75.0,30.03,NE,45,10.3,12.0,69,0.00,,,0.00,Rainwise IP-100,2013-09-19 16:07:00,
2013-09-19 12:12:00,86.8,75.0,30.03,ENE,67,7.9,12.0,69,0.00,,,0.00,Rainwise IP-100,2013-09-19 16:12:00,
2013-09-19 12:17:00,86.7,75.0,30.03,NNE,22,6.1,12.0,69,0.00,,,0.00,Rainwise IP-100,2013-09-19 16:17:00,
2013-09-19 12:22:00,86.4,75.0,30.02,NE,45,10.0,11.0,69,0.00,,,0.00,Rainwise IP-100,2013-09-19 16:22:00,
2013-09-19 12:27:00,86.1,74.0,30.02,NNE,22,9.1,13.0,69,0.00,,,0.00,Rainwise IP-100,2013-09-19 16:27:00,
2013-09-19 12:32:00,85.9,75.0,30.02,ENE,67,10.0,11.0,70,0.00,,,0.00,Rainwise IP-100,2013-09-19 16:32:00,
2013-09-19 12:37:00,85.9,75.0,30.02,ENE,67,9.6,12.0,70,0.00,,,0.00,Rainwise IP-100,2013-09-19 16:37:00,
2013-09-19 12:43:00,86.1,74.0,30.02,NE,45,7.9,12.0,69,0.00,,,0.00,Rainwise IP-100,2013-09-19 16:43:00,
2013-09-19 12:48:00,86.5,75.0,30.02,ENE,67,4.7,13.0,69,0.00,,,0.00,Rainwise IP-100,2013-09-19 16:48:00,
2013-09-19 12:53:00,86.6,75.0,30.02,NE,45,12.4,13.0,69,0.00,,,0.00,Rainwise IP-100,2013-09-19 16:53:00,
2013-09-19 12:58:00,86.7,75.0,30.02,ENE,67,6.5,13.0,69,0.00,,,0.00,Rainwise IP-100,2013-09-19 16:58:00,
2013-09-19 13:03:00,86.6,75.0,30.02,ENE,67,9.6,13.0,69,0.00,,,0.00,Rainwise IP-100,2013-09-19 17:03:00,
2013-09-19 13:08:00,86.0,74.0,30.02,NE,45,14.0,14.0,69,0.00,,,0.00,Rainwise IP-100,2013-09-19 17:08:00,
2013-09-19 13:13:00,85.8,74.0,30.02,NE,45,6.1,16.0,70,0.00,,,0.00,Rainwise IP-100,2013-09-19 17:13:00,
2013-09-19 13:19:00,86.2,75.0,30.01,NNE,22,8.9,13.0,70,0.00,,,0.00,Rainwise IP-100,2013-09-19 17:19:00,
2013-09-19 13:24:00,86.5,75.0,30.01,NNE,22,8.6,13.0,70,0.00,,,0.00,Rainwise IP-100,2013-09-19 17:24:00,
2013-09-19 13:29:00,86.5,75.0,30.01,NE,45,10.5,10.5,70,0.00,,,0.00,Rainwise IP-100,2013-09-19 17:29:00,
2013-09-19 13:34:00,86.1,75.0,30.01,NNE,22,4.9,11.0,71,0.00,,,0.00,Rainwise IP-100,2013-09-19 17:34:00,
2013-09-19 13:39:00,85.9,75.0,30.01,ENE,67,5.1,12.0,71,0.00,,,0.00,Rainwise IP-100,2013-09-19 17:39:00,
2013-09-19 13:44:00,85.9,76.0,30.00,East,90,9.6,13.0,72,0.00,,,0.00,Rainwise IP-100,2013-09-19 17:44:00,
2013-09-19 13:49:00,85.6,74.0,30.00,ENE,67,10.0,12.0,71,0.00,,,0.00,Rainwise IP-100,2013-09-19 17:49:00,
2013-09-19 13:54:00,85.6,74.0,30.00,NE,45,9.6,14.0,71,0.00,,,0.00,Rainwise IP-100,2013-09-19 17:54:00,
2013-09-19 14:00:00,85.9,75.0,30.00,NE,45,11.7,14.0,71,0.00,,,0.00,Rainwise IP-100,2013-09-19 18:00:00,
2013-09-19 14:05:00,86.1,75.0,29.99,ENE,67,10.0,15.0,71,0.00,,,0.00,Rainwise IP-100,2013-09-19 18:05:00,
2013-09-19 14:10:00,86.1,75.0,29.99,NNE,22,9.1,13.0,70,0.00,,,0.00,Rainwise IP-100,2013-09-19 18:10:00,
2013-09-19 14:15:00,85.9,74.0,29.99,ENE,67,9.1,14.0,69,0.00,,,0.00,Rainwise IP-100,2013-09-19 18:15:00,
2013-09-19 14:20:00,86.0,74.0,30.00,NE,45,11.0,14.0,69,0.00,,,0.00,Rainwise IP-100,2013-09-19 18:20:00,
2013-09-19 14:25:00,86.0,75.0,30.00,ENE,67,7.2,14.0,70,0.00,,,0.00,Rainwise IP-100,2013-09-19 18:25:00,
2013-09-19 14:30:00,85.8,75.0,29.99,ENE,67,9.1,13.0,71,0.00,,,0.00,Rainwise IP-100,2013-09-19 18:30:00,
2013-09-19 14:36:00,85.9,75.0,29.99,NNE,22,10.7,16.0,71,0.00,,,0.00,Rainwise IP-100,2013-09-19 18:36:00,
2013-09-19 14:41:00,86.1,75.0,29.99,NE,45,7.2,15.0,70,0.00,,,0.00,Rainwise IP-100,2013-09-19 18:41:00,
2013-09-19 14:46:00,86.1,75.0,29.99,NE,45,7.9,15.0,70,0.00,,,0.00,Rainwise IP-100,2013-09-19 18:46:00,
2013-09-19 14:51:00,86.2,75.0,29.98,ENE,67,11.9,15.0,70,0.00,,,0.00,Rainwise IP-100,2013-09-19 18:51:00,
2013-09-19 14:56:00,86.4,74.0,29.98,NE,45,7.5,14.0,68,0.00,,,0.00,Rainwise IP-100,2013-09-19 18:56:00,
2013-09-19 15:01:00,86.7,75.0,29.98,NE,45,10.3,14.0,69,0.00,,,0.00,Rainwise IP-100,2013-09-19 19:01:00,
2013-09-19 15:06:00,86.4,75.0,29.98,NE,45,9.8,17.0,70,0.00,,,0.00,Rainwise IP-100,2013-09-19 19:06:00,
2013-09-19 15:11:00,86.2,75.0,29.98,NE,45,6.3,17.0,71,0.00,,,0.00,Rainwise IP-100,2013-09-19 19:11:00,
2013-09-19 15:17:00,85.8,75.0,29.98,ENE,67,11.9,15.0,71,0.00,,,0.00,Rainwise IP-100,2013-09-19 19:17:00,
2013-09-19 15:22:00,85.2,75.0,29.98,NE,45,9.6,15.0,72,0.00,,,0.00,Rainwise IP-100,2013-09-19 19:22:00,
2013-09-19 15:27:00,84.8,75.0,29.98,NE,45,7.9,15.0,73,0.00,,,0.00,Rainwise IP-100,2013-09-19 19:27:00,
2013-09-19 15:32:00,84.5,76.0,29.98,ENE,67,15.6,15.6,75,0.00,,,0.00,Rainwise IP-100,2013-09-19 19:32:00,
2013-09-19 15:37:00,84.4,76.0,29.98,ENE,67,9.1,15.0,76,0.00,,,0.00,Rainwise IP-100,2013-09-19 19:37:00,
2013-09-19 15:42:00,84.1,76.0,29.98,NE,45,6.5,15.0,76,0.00,,,0.00,Rainwise IP-100,2013-09-19 19:42:00,
2013-09-19 15:47:00,84.1,76.0,29.99,NE,45,10.7,14.0,76,0.00,,,0.00,Rainwise IP-100,2013-09-19 19:47:00,
2013-09-19 15:53:00,83.9,76.0,29.98,ENE,67,13.1,18.0,76,0.00,,,0.00,Rainwise IP-100,2013-09-19 19:53:00,
2013-09-19 15:58:00,83.7,76.0,29.98,ENE,67,8.9,16.0,77,0.00,,,0.00,Rainwise IP-100,2013-09-19 19:58:00,
2013-09-19 16:03:00,83.7,76.0,29.98,ENE,67,8.6,19.0,77,0.00,,,0.00,Rainwise IP-100,2013-09-19 20:03:00,
2013-09-19 16:08:00,83.7,76.0,29.97,ENE,67,15.2,15.2,77,0.00,,,0.00,Rainwise IP-100,2013-09-19 20:08:00,
2013-09-19 16:13:00,83.7,75.0,29.98,ENE,67,10.7,15.0,76,0.00,,,0.00,Rainwise IP-100,2013-09-19 20:13:00,
2013-09-19 16:18:00,83.7,75.0,29.98,NE,45,8.2,16.0,76,0.00,,,0.00,Rainwise IP-100,2013-09-19 20:18:00,
2013-09-19 16:23:00,83.7,75.0,29.98,ENE,67,8.9,13.0,76,0.00,,,0.00,Rainwise IP-100,2013-09-19 20:23:00,
2013-09-19 16:28:00,83.6,74.0,29.98,NNE,22,9.6,14.0,75,0.00,,,0.00,Rainwise IP-100,2013-09-19 20:28:00,
2013-09-19 16:34:00,83.5,74.0,29.98,NE,45,9.6,13.0,74,0.00,,,0.00,Rainwise IP-100,2013-09-19 20:34:00,
2013-09-19 16:39:00,83.4,74.0,29.98,NE,45,9.3,14.0,75,0.00,,,0.00,Rainwise IP-100,2013-09-19 20:39:00,
2013-09-19 16:44:00,83.3,74.0,29.98,NE,45,10.5,14.0,75,0.00,,,0.00,Rainwise IP-100,2013-09-19 20:44:00,
2013-09-19 16:49:00,83.3,74.0,29.97,ENE,67,13.5,15.0,75,0.00,,,0.00,Rainwise IP-100,2013-09-19 20:49:00,
2013-09-19 16:54:00,83.3,74.0,29.98,NNE,22,9.6,13.0,75,0.00,,,0.00,Rainwise IP-100,2013-09-19 20:54:00,
2013-09-19 16:59:00,83.3,74.0,29.98,NNE,22,9.3,12.0,76,0.00,,,0.00,Rainwise IP-100,2013-09-19 20:59:00,
2013-09-19 17:04:00,83.3,75.0,29.99,ENE,67,10.0,14.0,77,0.00,,,0.00,Rainwise IP-100,2013-09-19 21:04:00,
2013-09-19 17:10:00,83.3,75.0,29.98,ENE,67,12.4,14.0,77,0.00,,,0.00,Rainwise IP-100,2013-09-19 21:10:00,
2013-09-19 17:15:00,83.3,75.0,29.98,ENE,67,10.3,14.0,77,0.00,,,0.00,Rainwise IP-100,2013-09-19 21:15:00,
2013-09-19 17:20:00,83.2,76.0,29.98,NE,45,14.2,18.0,78,0.00,,,0.00,Rainwise IP-100,2013-09-19 21:20:00,
2013-09-19 17:25:00,83.2,76.0,29.98,NE,45,8.6,14.0,79,0.00,,,0.00,Rainwise IP-100,2013-09-19 21:25:00,
2013-09-19 17:30:00,83.1,76.0,29.98,NE,45,8.2,18.0,79,0.00,,,0.00,Rainwise IP-100,2013-09-19 21:30:00,
2013-09-19 17:35:00,82.9,76.0,29.98,NE,45,10.7,16.0,79,0.00,,,0.00,Rainwise IP-100,2013-09-19 21:35:00,
2013-09-19 17:40:00,83.1,75.0,29.98,East,90,7.9,15.0,78,0.00,,,0.00,Rainwise IP-100,2013-09-19 21:40:00,
2013-09-19 17:45:00,83.1,75.0,29.99,ENE,67,8.2,16.0,78,0.00,,,0.00,Rainwise IP-100,2013-09-19 21:45:00,
2013-09-19 17:51:00,83.5,75.0,29.99,ENE,67,9.3,12.0,77,0.00,,,0.00,Rainwise IP-100,2013-09-19 21:51:00,
2013-09-19 17:56:00,83.9,76.0,29.99,ESE,112,6.5,13.0,77,0.00,,,0.00,Rainwise IP-100,2013-09-19 21:56:00,
2013-09-19 18:01:00,83.2,76.0,30.00,NE,45,14.7,22.0,78,0.12,,,0.02,Rainwise IP-100,2013-09-19 22:01:00,
2013-09-19 18:06:00,81.6,75.0,30.00,ENE,67,5.1,14.0,81,0.18,,,0.03,Rainwise IP-100,2013-09-19 22:06:00,
2013-09-19 18:11:00,80.8,76.0,30.00,NNE,22,9.6,11.0,85,0.06,,,0.03,Rainwise IP-100,2013-09-19 22:11:00,
2013-09-19 18:16:00,80.6,76.0,30.00,ENE,67,8.6,17.0,86,0.00,,,0.03,Rainwise IP-100,2013-09-19 22:16:00,
2013-09-19 18:21:00,80.9,76.0,29.99,NE,45,10.7,14.0,86,0.00,,,0.03,Rainwise IP-100,2013-09-19 22:21:00,
2013-09-19 18:27:00,81.3,76.0,30.00,East,90,12.4,15.0,85,0.00,,,0.03,Rainwise IP-100,2013-09-19 22:27:00,
2013-09-19 18:32:00,81.5,76.0,30.00,ENE,67,14.0,14.0,84,0.00,,,0.03,Rainwise IP-100,2013-09-19 22:32:00,
2013-09-19 18:37:00,81.7,76.0,29.99,ENE,67,10.5,15.0,83,0.00,,,0.03,Rainwise IP-100,2013-09-19 22:37:00,
2013-09-19 18:42:00,81.8,76.0,29.98,ENE,67,8.9,18.0,83,0.00,,,0.03,Rainwise IP-100,2013-09-19 22:42:00,
2013-09-19 18:47:00,81.9,76.0,29.99,NE,45,17.5,24.0,82,0.00,,,0.03,Rainwise IP-100,2013-09-19 22:47:00,
2013-09-19 18:52:00,81.4,75.0,29.99,ENE,67,14.2,22.0,82,0.00,,,0.03,Rainwise IP-100,2013-09-19 22:52:00,
2013-09-19 18:57:00,80.7,75.0,29.99,ENE,67,13.3,22.0,83,0.00,,,0.03,Rainwise IP-100,2013-09-19 22:57:00,
2013-09-19 19:02:00,79.9,75.0,30.00,NNE,22,13.5,21.0,85,0.06,,,0.04,Rainwise IP-100,2013-09-19 23:02:00,
2013-09-19 19:08:00,79.3,75.0,30.01,ENE,67,7.0,17.0,87,0.06,,,0.04,Rainwise IP-100,2013-09-19 23:08:00,
2013-09-19 19:13:00,79.6,75.0,30.00,ENE,67,11.9,15.0,87,0.00,,,0.04,Rainwise IP-100,2013-09-19 23:13:00,
2013-09-19 19:18:00,79.7,75.0,30.00,ENE,67,9.1,18.0,86,0.00,,,0.04,Rainwise IP-100,2013-09-19 23:18:00,
2013-09-19 19:23:00,79.8,74.0,30.00,ENE,67,12.1,17.0,85,0.00,,,0.04,Rainwise IP-100,2013-09-19 23:23:00,
2013-09-19 19:28:00,79.9,75.0,30.01,ENE,67,10.3,17.0,85,0.00,,,0.04,Rainwise IP-100,2013-09-19 23:28:00,
2013-09-19 19:33:00,79.8,74.0,30.01,NE,45,9.3,15.0,85,0.00,,,0.04,Rainwise IP-100,2013-09-19 23:33:00,
2013-09-19 19:38:00,80.0,75.0,30.01,ENE,67,11.0,15.0,86,0.00,,,0.04,Rainwise IP-100,2013-09-19 23:38:00,
2013-09-19 19:44:00,80.3,75.0,30.01,ENE,67,9.3,15.0,85,0.00,,,0.04,Rainwise IP-100,2013-09-19 23:44:00,
2013-09-19 19:49:00,80.4,75.0,30.01,NE,45,9.3,18.0,84,0.00,,,0.04,Rainwise IP-100,2013-09-19 23:49:00,
2013-09-19 19:54:00,80.3,74.0,30.00,ENE,67,5.1,17.0,84,0.00,,,0.04,Rainwise IP-100,2013-09-19 23:54:00,
2013-09-19 19:59:00,80.2,74.0,30.00,NE,45,14.9,16.0,83,0.00,,,0.04,Rainwise IP-100,2013-09-19 23:59:00,
2013-09-19 20:04:00,80.0,73.0,30.01,ENE,67,7.7,19.0,82,0.00,,,0.04,Rainwise IP-100,2013-09-20 00:04:00,
2013-09-19 20:09:00,79.9,73.0,30.01,NE,45,9.6,16.0,82,0.00,,,0.04,Rainwise IP-100,2013-09-20 00:09:00,
2013-09-19 20:14:00,80.1,73.0,30.01,East,90,11.0,18.0,82,0.00,,,0.04,Rainwise IP-100,2013-09-20 00:14:00,
2013-09-19 20:19:00,80.5,74.0,30.01,ENE,67,17.3,17.3,82,0.00,,,0.04,Rainwise IP-100,2013-09-20 00:19:00,
2013-09-19 20:25:00,80.5,74.0,30.01,NE,45,8.6,19.0,83,0.00,,,0.04,Rainwise IP-100,2013-09-20 00:25:00,
2013-09-19 20:30:00,80.0,74.0,30.01,NNE,22,15.9,18.0,84,0.00,,,0.04,Rainwise IP-100,2013-09-20 00:30:00,
2013-09-19 20:35:00,79.7,75.0,30.01,NE,45,12.1,20.0,86,0.00,,,0.04,Rainwise IP-100,2013-09-20 00:35:00,
2013-09-19 20:40:00,79.6,75.0,30.01,NE,45,14.7,18.0,86,0.00,,,0.04,Rainwise IP-100,2013-09-20 00:40:00,
2013-09-19 20:45:00,79.4,75.0,30.02,NE,45,10.3,16.0,87,0.00,,,0.04,Rainwise IP-100,2013-09-20 00:45:00,
2013-09-19 20:50:00,79.4,75.0,30.02,ENE,67,4.9,14.0,87,0.00,,,0.04,Rainwise IP-100,2013-09-20 00:50:00,
2013-09-19 20:55:00,79.2,75.0,30.02,East,90,7.7,13.0,88,0.00,,,0.04,Rainwise IP-100,2013-09-20 00:55:00,
2013-09-19 21:01:00,78.5,75.0,30.02,East,90,8.2,13.0,89,0.00,,,0.04,Rainwise IP-100,2013-09-20 01:01:00,
2013-09-19 21:06:00,78.0,74.0,30.03,SSE,157,3.5,17.0,89,0.00,,,0.05,Rainwise IP-100,2013-09-20 01:06:00,
2013-09-19 21:11:00,78.0,74.0,30.03,SSE,157,3.5,8.0,90,0.12,,,0.06,Rainwise IP-100,2013-09-20 01:11:00,
2013-09-19 21:16:00,77.9,75.0,30.02,SSE,157,7.2,8.0,91,0.06,,,0.06,Rainwise IP-100,2013-09-20 01:16:00,
2013-09-19 21:21:00,77.8,75.0,30.03,ESE,112,3.0,7.0,92,0.00,,,0.06,Rainwise IP-100,2013-09-20 01:21:00,
2013-09-19 21:26:00,77.8,75.0,30.03,South,180,0.0,6.0,92,0.00,,,0.06,Rainwise IP-100,2013-09-20 01:26:00,
2013-09-19 21:31:00,77.8,75.0,30.03,ESE,112,1.9,4.0,93,0.00,,,0.06,Rainwise IP-100,2013-09-20 01:31:00,
2013-09-19 21:36:00,77.8,75.0,30.03,ESE,112,0.0,5.0,93,0.00,,,0.06,Rainwise IP-100,2013-09-20 01:36:00,
2013-09-19 21:42:00,78.0,75.0,30.02,ESE,112,6.1,17.0,92,0.00,,,0.06,Rainwise IP-100,2013-09-20 01:42:00,
2013-09-19 21:47:00,78.9,76.0,30.03,ENE,67,8.6,17.0,90,0.00,,,0.06,Rainwise IP-100,2013-09-20 01:47:00,
2013-09-19 21:52:00,80.1,76.0,30.03,ENE,67,11.2,19.0,87,0.00,,,0.06,Rainwise IP-100,2013-09-20 01:52:00,
2013-09-19 21:57:00,80.9,75.0,30.03,NE,45,13.8,17.0,83,0.00,,,0.06,Rainwise IP-100,2013-09-20 01:57:00,
2013-09-19 22:02:00,81.3,74.0,30.03,NNE,22,10.5,16.0,81,0.00,,,0.06,Rainwise IP-100,2013-09-20 02:02:00,
2013-09-19 22:07:00,81.4,74.0,30.03,NE,45,8.6,17.0,80,0.00,,,0.06,Rainwise IP-100,2013-09-20 02:07:00,
2013-09-19 22:12:00,81.6,74.0,30.03,ENE,67,7.9,17.0,78,0.00,,,0.06,Rainwise IP-100,2013-09-20 02:12:00,
2013-09-19 22:18:00,81.8,74.0,30.04,NE,45,9.6,20.0,78,0.00,,,0.06,Rainwise IP-100,2013-09-20 02:18:00,
2013-09-19 22:23:00,81.9,74.0,30.04,ENE,67,12.4,14.0,77,0.00,,,0.06,Rainwise IP-100,2013-09-20 02:23:00,
2013-09-19 22:28:00,81.9,73.0,30.04,ENE,67,9.6,15.0,76,0.00,,,0.06,Rainwise IP-100,2013-09-20 02:28:00,
2013-09-19 22:33:00,82.0,73.0,30.03,NNE,22,10.3,18.0,75,0.00,,,0.06,Rainwise IP-100,2013-09-20 02:33:00,
2013-09-19 22:38:00,82.1,73.0,30.04,ENE,67,11.0,15.0,76,0.00,,,0.06,Rainwise IP-100,2013-09-20 02:38:00,
2013-09-19 22:43:00,82.0,73.0,30.02,ENE,67,7.5,15.0,76,0.00,,,0.06,Rainwise IP-100,2013-09-20 02:43:00,
2013-09-19 22:48:00,82.0,73.0,30.03,NE,45,13.8,19.0,76,0.00,,,0.06,Rainwise IP-100,2013-09-20 02:48:00,
2013-09-19 22:53:00,82.0,73.0,30.04,ENE,67,6.5,18.0,75,0.00,,,0.06,Rainwise IP-100,2013-09-20 02:53:00,
2013-09-19 22:59:00,82.1,72.0,30.03,East,90,8.2,18.0,74,0.00,,,0.06,Rainwise IP-100,2013-09-20 02:59:00,
2013-09-19 23:04:00,82.0,72.0,30.03,ENE,67,11.4,17.0,74,0.00,,,0.06,Rainwise IP-100,2013-09-20 03:04:00,
2013-09-19 23:09:00,82.0,72.0,30.03,ENE,67,14.9,21.0,74,0.00,,,0.06,Rainwise IP-100,2013-09-20 03:09:00,
2013-09-19 23:14:00,82.1,72.0,30.03,ENE,67,11.4,19.0,73,0.00,,,0.06,Rainwise IP-100,2013-09-20 03:14:00,
2013-09-19 23:19:00,82.1,72.0,30.03,ENE,67,11.2,19.0,73,0.00,,,0.06,Rainwise IP-100,2013-09-20 03:19:00,
2013-09-19 23:24:00,82.1,72.0,30.03,NE,45,13.3,16.0,73,0.00,,,0.06,Rainwise IP-100,2013-09-20 03:24:00,
2013-09-19 23:30:00,82.1,72.0,30.02,ENE,67,10.7,16.0,73,0.00,,,0.06,Rainwise IP-100,2013-09-20 03:30:00,
2013-09-19 23:35:00,82.0,72.0,30.03,East,90,6.5,15.0,74,0.00,,,0.06,Rainwise IP-100,2013-09-20 03:35:00,
2013-09-19 23:40:00,82.0,72.0,30.02,ENE,67,8.4,19.0,73,0.00,,,0.06,Rainwise IP-100,2013-09-20 03:40:00,
2013-09-19 23:45:00,82.0,72.0,30.03,ENE,67,15.2,16.0,72,0.00,,,0.06,Rainwise IP-100,2013-09-20 03:45:00,
2013-09-19 23:50:00,81.9,72.0,30.02,ENE,67,7.5,17.0,72,0.00,,,0.06,Rainwise IP-100,2013-09-20 03:50:00,
2013-09-19 23:55:00,81.8,71.0,30.02,ENE,67,9.6,15.0,72,0.00,,,0.06,Rainwise IP-100,2013-09-20 03:55:00,